User: anonymous   Login
Location: Unspecified
(0.0000°N, 0.0000°E)
Time: 07:22:23
(UTC+00:00)
Language:

XIAOXIANG 2 - Orbit

View from above orbital plane
View from above orbital plane
View from above satellite
View from above satellite

Ground track
Ground track

The orbit data is extracted from the following two-line orbital elements,

1 43155U 18008A   22225.87441444  .00005929  00000-0  31142-3 0  9993
2 43155  97.3489 282.4389 0014663 309.0067 166.4839 15.15981481251975
Epoch (UTC): 13 August 2022 20:59:09
Eccentricity: 0.0014663
inclination: 97.3489°
perigee height: 508 km
apogee height: 528 km
right ascension of ascending node: 282.4389°
argument of perigee: 309.0067°
revolutions per day: 15.15981481
mean anomaly at epoch: 166.4839°
orbit number at epoch: 25197

The dashed part of the orbit path shows where the satellite is in the earth's shadow,  

DLR